Vertical_Velocity
3 1 -7 -4 2 2 3 0 1 -3 -1 -5 -5 -4 -6 -1 -5 -7 -5 -3 1 -2 0 -1 5 4 -1 2 0 -0 -1 4 1 2 -0 1 3 4 4 2 1 -2 -2 1
1 -7 2 1 1 -1 4 0 -5 -8 -9 7 -3 -17 -7 -0 -15 -2 -2 -7 -3 -2 1 3 1 1 -1 4 3 -1 -4 2 2 2 1 7 1 1 1 1 -0 -2 -2 1
-0 0 1 3 0 2 -2 -2 -3 -1 -1 6 -0 -43 -20 -5 -3 -9 -2 -3 -3 -4 -4 2 4 -0 0 1 7 -0 -5 -2 2 2 2 4 3 -0 -0 1 2 1 0 1
-3 2 2 -1 2 -0 6 -1 -0 -0 9 -5 3 -17 -15 -6 -5 -6 -3 -7 -4 -3 -5 -1 3 -1 -3 3 2 4 -1 -1 -1 -0 -0 1 6 0 -0 2 1 1 0 2
-7 -1 -1 5 -11 14 -7 -4 2 3 -1 8 -2 8 -15 -5 -6 -4 -6 -2 -2 -3 -7 -6 -0 -3 1 2 -1 3 1 0 1 2 1 1 1 1 -1 2 3 1 0 -0
-5 3 -1 -6 -0 6 4 2 1 3 3 10 -4 1 -33 -11 -7 -9 -5 2 3 0 -4 -4 -0 -1 -2 -1 2 -1 1 2 1 2 3 1 1 2 2 3 2 1 -0 2
0 -6 1 1 2 6 6 8 1 8 11 -6 -1 18 -68 -2 -10 -6 3 5 4 -2 2 2 1 4 -3 -3 2 -1 -1 1 2 2 3 3 2 0 -0 0 2 0 1 -1
-0 -7 6 -8 -9 3 -3 -2 -4 -1 -2 -4 -0 -5 -55 -9 -3 -8 1 -6 2 6 2 3 7 3 -0 1 -1 -1 -0 0 1 2 2 2 1 -1 0 2 2 1 -0 -2
1 -4 1 -4 -0 4 2 0 5 8 0 6 -5 -14 -25 -16 7 -3 -2 -3 1 -1 0 8 5 1 -1 -1 2 0 0 1 1 3 2 2 0 2 1 1 2 0 0 -0
2 -2 -2 -1 2 -1 -0 3 6 7 2 0 -5 -3 -23 -7 10 -2 1 6 8 7 -2 -2 -2 5 -1 1 2 3 1 3 4 3 3 2 2 0 0 1 0 -0 -0 -0
4 6 -0 4 -7 -2 6 2 0 1 0 -3 -0 -15 2 10 -2 -7 -4 -2 2 -3 4 3 -1 -1 1 5 3 3 1 1 1 2 2 3 3 1 2 1 -1 -0 0 -0
-4 3 -3 -15 4 6 -2 -3 12 3 -1 -2 0 -55 -13 0 -2 0 7 4 -5 5 0 7 0 4 -0 -1 3 4 2 1 2 2 3 4 2 1 1 0 0 0 -0 -1
0 -0 -0 -2 2 4 -5 -7 1 4 9 -11 3 -21 -10 14 9 3 -5 3 5 3 4 -1 3 3 1 2 2 4 3 1 1 1 3 4 2 1 -0 0 1 0 -1 1
8 1 -9 -12 -14 5 1 -4 4 5 4 -17 -25 -13 -3 -2 -14 3 -2 4 4 3 3 6 3 2 2 4 5 4 3 2 2 2 3 3 1 -0 1 2 0 0 0 0
3 -10 16 -0 17 13 6 4 1 -6 -4 -6 -9 -17 33 -16 -3 -0 6 2 4 8 1 4 6 -0 5 0 1 2 3 3 2 3 3 1 2 2 1 -0 0 0 -0 -0
-2 -23 3 -14 6 15 13 8 4 0 11 -3 8 -41 -3 -4 -9 -27 2 6 4 9 4 -4 1 1 5 1 4 4 3 3 4 3 1 2 2 1 -0 1 0 -0 0 0
7 3 5 -15 1 4 -6 -6 -5 5 4 -1 -21 -1 5 3 -8 7 -9 4 3 3 2 -5 4 4 4 4 5 5 4 2 1 1 1 2 1 1 1 1 1 0 -0 -0
-3 11 8 -9 -0 1 -1 0 3 -1 8 4 -7 -2 -6 -5 9 10 6 8 2 -0 2 -1 3 2 2 4 3 1 -0 1 0 -0 0 1 1 0 0 1 0 -0 0 1
7 10 1 5 2 -9 2 2 -5 -5 -6 -10 -6 6 1 1 6 14 9 4 -1 5 3 1 4 5 2 2 0 -1 -1 -1 0 0 1 1 0 1 1 1 0 1 1 1
1 -0 19 -2 2 1 6 6 -2 0 -8 17 -3 -4 5 7 6 -1 -2 5 -0 1 -14 -7 3 2 1 -1 -1 -0 0 1 1 1 0 1 1 0 0 2 1 2 0 -2
-4 -3 -1 2 -2 -3 -1 2 -2 -3 2 -0 -7 3 -11 -6 -2 -1 -6 -1 1 2 -7 2 3 2 2 0 0 1 1 0 -0 1 1 0 -0 0 1 1 2 -1 -1 -1
1 -0 -0 2 0 -4 -2 1 0 6 3 3 2 -3 -4 -1 -5 -6 -11 -1 -9 -3 4 2 1 1 1 1 0 1 1 1 1 1 1 0 1 1 1 0 -0 -0 -0 -1
-2 -1 -1 -2 -0 -1 -1 -9 -0 2 -1 -1 1 2 -0 -1 0 -1 5 6 4 12 4 1 1 3 1 0 1 0 0 1 2 1 1 1 1 1 0 0 -0 -2 -2 -2
-3 -1 -2 0 -1 4 4 2 -3 -3 -3 1 -1 -2 -1 -0 -4 1 1 9 5 4 3 2 1 0 0 1 1 1 2 2 1 1 1 1 -0 0 1 -1 -1 -1 -1 1
-1 0 0 5 1 -1 -1 3 1 2 1 -1 0 -2 -0 -2 0 3 6 2 2 1 1 1 1 1 1 1 1 2 1 1 1 0 -0 1 1 -0 -1 -0 -0 1 -2 -3
-2 -1 -0 1 1 4 1 2 -0 -0 -0 -1 -4 -0 -2 -2 4 1 1 1 1 1 1 0 0 1 1 0 0 1 0 -0 -0 1 1 -0 -1 -1 -1 1 0 -4 -1 -1
Height
3043 3043 3040 3044 3049 3050 3051 3051 3050 3052 3054 3050 3046 3039 3040 3043 3042 3043 3046 3050 3053 3058 3066 3071 3076 3076 3078 3081 3085 3088 3089 3089 3090 3092 3094 3097 3098 3100 3100 3100 3101 3102 3102 3102
3041 3034 3039 3042 3044 3046 3047 3046 3045 3044 3048 3048 3039 3022 3029 3031 3031 3032 3035 3040 3045 3050 3056 3063 3068 3070 3072 3076 3079 3081 3083 3083 3084 3086 3088 3091 3093 3094 3095 3096 3097 3097 3098 3098
3035 3035 3037 3037 3039 3040 3041 3040 3042 3042 3044 3040 3035 3007 3016 3019 3020 3024 3025 3030 3035 3039 3045 3054 3059 3063 3066 3070 3073 3075 3076 3076 3078 3079 3082 3085 3087 3088 3090 3092 3093 3093 3094 3094
3030 3030 3031 3033 3032 3037 3034 3036 3038 3037 3040 3036 3034 3010 3005 3008 3009 3012 3016 3019 3024 3030 3037 3044 3050 3055 3059 3064 3067 3069 3071 3071 3072 3075 3077 3080 3083 3084 3086 3088 3089 3089 3090 3090
3023 3024 3028 3026 3028 3033 3030 3033 3034 3034 3033 3032 3027 3029 2990 2999 2998 3002 3009 3012 3016 3021 3028 3034 3041 3048 3053 3057 3061 3063 3066 3067 3068 3071 3073 3076 3078 3081 3083 3084 3085 3085 3086 3086
3020 3021 3021 3022 3026 3028 3029 3030 3030 3030 3030 3020 3016 3022 2980 2994 2994 2998 3005 3008 3009 3013 3019 3026 3033 3039 3045 3050 3054 3058 3061 3062 3065 3067 3069 3072 3075 3078 3079 3081 3081 3082 3082 3082
3014 3013 3014 3017 3021 3023 3025 3026 3025 3023 3019 3007 3008 3009 2983 2988 2993 2994 2995 2998 3003 3007 3012 3018 3023 3030 3036 3043 3049 3053 3056 3058 3061 3064 3066 3069 3072 3074 3076 3077 3078 3078 3078 3078
3010 3006 3008 3008 3010 3014 3014 3019 3017 3011 3012 3006 3006 2989 2977 2984 2988 2989 2991 2993 2995 2998 3002 3010 3018 3025 3031 3037 3043 3047 3051 3054 3057 3060 3063 3065 3068 3070 3072 3073 3074 3074 3074 3073
3007 3004 3002 3003 3005 3010 3010 3009 3010 3009 3006 3002 2993 2983 2979 2980 2981 2983 2984 2987 2989 2993 2997 3004 3011 3018 3026 3032 3037 3042 3047 3050 3053 3056 3059 3062 3064 3066 3068 3069 3069 3069 3068 3067
3004 3001 2998 3000 3000 3000 3001 3003 3006 3004 2999 2994 2985 2981 2975 2977 2980 2976 2975 2976 2981 2986 2991 2997 3004 3012 3020 3027 3032 3036 3041 3045 3048 3051 3055 3057 3060 3063 3064 3064 3064 3064 3063 3062
3002 3001 2996 2994 2990 2989 2994 2994 2996 2995 2992 2990 2987 2975 2971 2973 2974 2971 2968 2970 2974 2978 2984 2991 2997 3004 3014 3021 3026 3031 3036 3040 3044 3047 3051 3053 3056 3058 3059 3060 3060 3059 3058 3056
2995 2995 2990 2985 2985 2987 2986 2985 2986 2985 2985 2983 2981 2966 2972 2969 2967 2968 2963 2963 2964 2969 2977 2981 2990 2999 3008 3015 3020 3026 3031 3036 3040 3043 3047 3049 3052 3054 3055 3055 3054 3053 3052 3049
2991 2989 2987 2979 2979 2976 2972 2969 2972 2978 2979 2972 2973 2955 2962 2967 2965 2966 2959 2958 2958 2964 2971 2979 2986 2993 3001 3009 3015 3021 3026 3031 3035 3039 3042 3045 3047 3049 3049 3049 3049 3048 3046 3043
2989 2983 2981 2974 2966 2964 2959 2959 2961 2967 2970 2958 2952 2957 2956 2963 2962 2963 2960 2957 2957 2960 2966 2973 2979 2988 2996 3004 3011 3017 3022 3027 3031 3035 3038 3041 3042 3043 3044 3044 3043 3041 3039 3036
2983 2974 2970 2959 2953 2955 2950 2949 2953 2955 2954 2958 2950 2955 2957 2960 2959 2959 2955 2955 2956 2960 2966 2973 2980 2987 2994 3002 3008 3013 3018 3023 3027 3031 3034 3036 3037 3038 3038 3038 3037 3035 3033 3029
2977 2968 2964 2952 2948 2941 2937 2941 2944 2946 2953 2948 2948 2946 2953 2955 2955 2954 2952 2956 2957 2961 2969 2975 2981 2988 2995 3001 3005 3010 3015 3019 3023 3027 3030 3031 3032 3033 3033 3032 3030 3028 3025 3021
2975 2970 2964 2951 2946 2942 2937 2936 2936 2940 2942 2943 2946 2935 2949 2949 2945 2949 2951 2955 2958 2963 2971 2978 2984 2990 2995 2999 3004 3008 3013 3017 3020 3023 3025 3027 3027 3027 3027 3026 3024 3021 3018 3013
2971 2969 2965 2953 2947 2942 2939 2934 2933 2935 2935 2938 2938 2941 2946 2942 2947 2952 2953 2955 2958 2963 2971 2979 2985 2989 2993 2997 3002 3006 3010 3013 3016 3019 3020 3021 3022 3021 3021 3019 3017 3014 3009 3005
2968 2968 2965 2958 2951 2945 2940 2937 2935 2935 2934 2934 2934 2940 2944 2946 2948 2952 2954 2957 2961 2966 2973 2981 2986 2989 2993 2996 3000 3004 3007 3010 3012 3014 3015 3016 3016 3016 3015 3013 3009 3005 3001 2997
2962 2965 2967 2962 2958 2951 2945 2943 2939 2938 2937 2934 2937 2941 2945 2948 2953 2956 2959 2962 2966 2970 2975 2982 2986 2989 2992 2995 2998 3001 3004 3007 3008 3009 3011 3011 3011 3010 3008 3005 3001 2998 2995 2990
2962 2963 2963 2963 2961 2954 2949 2947 2945 2945 2951 2945 2946 2947 2950 2954 2958 2962 2964 2968 2971 2973 2977 2981 2985 2989 2992 2994 2997 2999 3001 3003 3004 3005 3006 3006 3005 3003 3000 2998 2995 2992 2987 2983
2962 2962 2961 2960 2959 2956 2951 2949 2949 2949 2947 2946 2948 2950 2953 2957 2960 2963 2967 2969 2972 2977 2980 2983 2986 2988 2990 2992 2995 2997 2998 3000 3001 3001 3001 3000 2998 2996 2995 2992 2988 2985 2981 2976
2960 2959 2959 2959 2957 2956 2954 2953 2951 2950 2949 2947 2947 2950 2954 2957 2960 2962 2965 2969 2974 2978 2981 2983 2985 2987 2989 2991 2993 2995 2996 2997 2997 2996 2996 2994 2993 2991 2989 2986 2982 2978 2973 2969
2957 2957 2956 2956 2954 2953 2954 2954 2954 2953 2952 2950 2949 2951 2954 2958 2961 2964 2967 2972 2976 2978 2980 2982 2984 2986 2988 2989 2991 2992 2993 2993 2992 2992 2991 2990 2988 2986 2983 2980 2977 2973 2967 2961
2956 2955 2955 2955 2953 2952 2953 2953 2954 2954 2953 2953 2953 2954 2956 2958 2962 2966 2969 2972 2975 2977 2979 2981 2982 2984 2986 2987 2988 2989 2989 2989 2988 2987 2986 2985 2983 2981 2978 2975 2971 2966 2959 2952
2952 2953 2953 2952 2952 2952 2952 2953 2954 2955 2955 2956 2957 2957 2958 2961 2965 2967 2970 2972 2974 2976 2978 2980 2982 2983 2984 2985 2986 2986 2986 2985 2985 2984 2982 2980 2978 2976 2973 2969 2964 2958 2952 2945